Farmington, MO

1:25 PM CDT on April 22, 2018 (GMT -0500)
Farmington Regional

Weather History for KFAM - January, 2015

Change the Weather History Date:

Wednesday, January 14, 2015

  Actual Average Record
Temperature  
Mean Temperature 21 °F -  
Max Temperature 30 °F 38 °F 59 °F (2004)
Min Temperature 12 °F 22 °F 3 °F (1997)
Degree Days  
Heating Degree Days 44    
Moisture  
Dew Point 16 °F    
Average Humidity 78    
Maximum Humidity 100    
Minimum Humidity 55    
Precipitation  
Precipitation 0.00 in - - ()
Sea Level Pressure  
Sea Level Pressure 30.36 in    
Wind  
Wind Speed - (North)    
Max Wind Speed -    
Max Gust Speed -    
Visibility 10 miles    
Events      
Averages and records for this station are not official NWS values.
T = Trace of Precipitation, MM = Missing Value Source: NWS Daily Summary

Daily Weather History Graph

Daily Weather History Graph

Search for Another Location

Airport or City:

Astronomy

Jan. 14, 2015 Rise Set
Actual Time 7:16 AM CST 5:05 PM CST
Civil Twilight 6:47 AM CST 5:34 PM CST
Nautical Twilight 6:15 AM CST 6:06 PM CST
Astronomical Twilight 5:43 AM CST 6:38 PM CST
Moon 1:12 AM CST (1/14) 12:17 PM CST (1/14)
Length of Visible Light 10h 46m
Length of Day
9h 49m
Last Quarter, 37% of the Moon is Illuminated
Jan 14
Last Quarter
Jan 20
New
Jan 26
First Quarter
Feb 3
Full
Feb 11
Last Quarter

Hourly Weather History & Observations

Time (CST) Temp. Dew Point Humidity Pressure Visibility Wind Dir Wind Speed Gust Speed Precip Events Conditions
12:15 AM 17.6 °F 14.0 °F 86% 30.42 in 10.0 mi North - - N/A   Clear
12:35 AM 17.6 °F 14.0 °F 86% 30.42 in 10.0 mi North - - N/A   Clear
12:55 AM 15.8 °F 14.0 °F 93% 30.43 in 10.0 mi North - - N/A   Clear
1:15 AM 15.8 °F 14.0 °F 93% 30.43 in 10.0 mi North - - N/A   Clear
1:35 AM 15.8 °F 15.8 °F 100% 30.43 in 10.0 mi North - - N/A   Clear
1:55 AM 14.0 °F 12.2 °F 93% 30.43 in 10.0 mi North - - N/A   Clear
2:15 AM 14.0 °F 10.4 °F 86% 30.44 in 10.0 mi North - - N/A   Clear
2:35 AM 15.8 °F 12.2 °F 86% 30.43 in 10.0 mi North - - N/A   Clear
2:55 AM 14.0 °F 12.2 °F 93% 30.43 in 10.0 mi North - - N/A   Clear
3:15 AM 15.8 °F 14.0 °F 93% 30.41 in 10.0 mi North - - N/A   Clear
3:35 AM 12.2 °F 10.4 °F 92% 30.41 in 10.0 mi North - - N/A   Clear
3:55 AM 12.2 °F 12.2 °F 100% 30.42 in 10.0 mi North - - N/A   Clear
4:15 AM 12.2 °F 10.4 °F 92% 30.41 in 10.0 mi North - - N/A   Clear
4:35 AM 12.2 °F 12.2 °F 100% 30.41 in 10.0 mi North - - N/A   Clear
4:55 AM 14.0 °F 14.0 °F 100% 30.40 in 10.0 mi North - - N/A   Clear
5:15 AM 14.0 °F 12.2 °F 93% 30.40 in 10.0 mi North - - N/A   Clear
5:35 AM 12.2 °F 12.2 °F 100% 30.40 in 10.0 mi North - - N/A   Clear
5:55 AM 12.2 °F 12.2 °F 100% 30.39 in 10.0 mi North - - N/A   Clear
6:15 AM 12.2 °F 12.2 °F 100% 30.40 in 10.0 mi North - - N/A   Clear
6:35 AM 12.2 °F 12.2 °F 100% 30.41 in 8.0 mi North - - N/A   Clear
6:55 AM 12.2 °F 10.4 °F 92% 30.41 in 8.0 mi North - - N/A   Clear
7:15 AM 12.2 °F 12.2 °F 100% 30.41 in 7.0 mi North - - N/A   Mostly Cloudy
7:35 AM 14.0 °F 12.2 °F 93% 30.41 in 7.0 mi North - - N/A   Partly Cloudy
7:55 AM 15.8 °F 14.0 °F 93% 30.41 in 2.5 mi North - - N/A   Partly Cloudy
8:15 AM 15.8 °F 14.0 °F 93% 30.41 in 4.0 mi North - - N/A   Partly Cloudy
8:35 AM 15.8 °F 15.8 °F 100% 30.41 in 5.0 mi North - - N/A   Clear
8:55 AM 17.6 °F 15.8 °F 93% 30.42 in 6.0 mi North - - N/A   Clear
9:15 AM 19.4 °F 17.6 °F 93% 30.43 in 5.0 mi North - - N/A   Clear
9:35 AM 19.4 °F 17.6 °F 93% 30.43 in 8.0 mi North - - N/A   Clear
9:55 AM 21.2 °F 17.6 °F 86% 30.43 in 10.0 mi North - - N/A   Partly Cloudy
10:15 AM 21.2 °F 17.6 °F 86% 30.43 in 10.0 mi North - - N/A   Scattered Clouds
10:35 AM 23.0 °F 17.6 °F 80% 30.42 in 10.0 mi North - - N/A   Partly Cloudy
10:55 AM 24.8 °F 17.6 °F 74% 30.41 in 10.0 mi North - - N/A   Scattered Clouds
11:15 AM 24.8 °F 15.8 °F 69% 30.40 in 10.0 mi North - - N/A   Mostly Cloudy
11:35 AM 26.6 °F 17.6 °F 69% 30.38 in 10.0 mi North - - N/A   Mostly Cloudy
11:55 AM 26.6 °F 15.8 °F 64% 30.37 in 10.0 mi North - - N/A   Overcast
12:15 PM 26.6 °F 15.8 °F 64% 30.35 in 10.0 mi North - - N/A   Overcast
12:35 PM 26.6 °F 15.8 °F 64% 30.34 in 10.0 mi North - - N/A   Overcast
12:55 PM 26.6 °F 15.8 °F 64% 30.33 in 10.0 mi North - - N/A   Overcast
1:15 PM 26.6 °F 17.6 °F 69% 30.32 in 10.0 mi North - - N/A   Overcast
1:35 PM 26.6 °F 17.6 °F 69% 30.32 in 10.0 mi North - - N/A   Overcast
1:55 PM 28.4 °F 17.6 °F 64% 30.32 in 10.0 mi North - - N/A   Overcast
2:15 PM 28.4 °F 17.6 °F 64% 30.32 in 10.0 mi North - - N/A   Overcast
2:35 PM 28.4 °F 15.8 °F 59% 30.32 in 10.0 mi North - - N/A   Overcast
2:55 PM 28.4 °F 15.8 °F 59% 30.31 in 10.0 mi North - - N/A   Overcast
3:15 PM 28.4 °F 17.6 °F 64% 30.31 in 10.0 mi North - - N/A   Overcast
3:35 PM 30.2 °F 17.6 °F 60% 30.31 in 10.0 mi North - - N/A   Overcast
3:55 PM 30.2 °F 15.8 °F 55% 30.31 in 10.0 mi North - - N/A   Overcast
4:15 PM 28.4 °F 17.6 °F 64% 30.31 in 10.0 mi North - - N/A   Overcast
4:35 PM 28.4 °F 17.6 °F 64% 30.32 in 10.0 mi North - - N/A   Overcast
4:55 PM 28.4 °F 17.6 °F 64% 30.31 in 10.0 mi North - - N/A   Overcast
5:15 PM 28.4 °F 17.6 °F 64% 30.31 in 10.0 mi North - - N/A   Overcast
5:35 PM 28.4 °F 19.4 °F 69% 30.31 in 10.0 mi North - - N/A   Overcast
5:55 PM 28.4 °F 17.6 °F 64% 30.31 in 10.0 mi North - - N/A   Overcast
6:15 PM 28.4 °F 17.6 °F 64% 30.31 in 10.0 mi North - - N/A   Overcast
6:35 PM 28.4 °F 17.6 °F 64% 30.31 in 10.0 mi North - - N/A   Overcast
6:55 PM 28.4 °F 19.4 °F 69% 30.31 in 10.0 mi North - - N/A   Overcast
7:15 PM 28.4 °F 19.4 °F 69% 30.30 in 10.0 mi North - - N/A   Overcast
7:35 PM 28.4 °F 19.4 °F 69% 30.30 in 10.0 mi North - - N/A   Overcast
7:55 PM 28.4 °F 19.4 °F 69% 30.29 in 10.0 mi North - - N/A   Overcast
8:15 PM 28.4 °F 19.4 °F 69% 30.29 in 10.0 mi North - - N/A   Overcast
8:35 PM 28.4 °F 19.4 °F 69% 30.28 in 10.0 mi North - - N/A   Overcast
8:55 PM 28.4 °F 19.4 °F 69% 30.27 in 10.0 mi North - - N/A   Overcast
9:15 PM 28.4 °F 19.4 °F 69% 30.28 in 10.0 mi North - - N/A   Overcast
9:35 PM 28.4 °F 19.4 °F 69% 30.28 in 10.0 mi North - - N/A   Overcast
9:55 PM 28.4 °F 21.2 °F 74% 30.28 in 10.0 mi North - - N/A   Overcast
10:15 PM 28.4 °F 19.4 °F 69% 30.28 in 10.0 mi North - - N/A   Overcast
10:35 PM 28.4 °F 19.4 °F 69% 30.28 in 10.0 mi North - - N/A   Overcast
10:55 PM 28.4 °F 19.4 °F 69% 30.28 in 10.0 mi North - - N/A   Overcast
11:15 PM 28.4 °F 19.4 °F 69% 30.28 in 10.0 mi North - - N/A   Overcast
11:35 PM 28.4 °F 19.4 °F 69% 30.27 in 10.0 mi North - - N/A   Overcast
11:55 PM 28.4 °F 19.4 °F 69% 30.27 in 10.0 mi North - - N/A   Overcast